Marco Pettenazzo

C.U.S. PADOVA
28-10-1992


Informazioni sul tesseramento aggiornate al 2019


Condividi con
Seguici su:


È nato a Padova il 28 ottobre 1992, 1.78x61kg
Società: Atletica Città di Padova
Allenatore: Silvia Sommaggio

Ha praticato nuoto a livello agonistico, poi anche triathlon per scoprire che la frazione della corsa era quella che gli riusciva meglio e provare con l’atletica a 14 anni, scegliendo subito il mezzofondo, da amante delle specialità di fatica. Al campo di Voltabarozzo si è allenato a lungo con il tecnico Gianfranco Sommaggio, scomparso nel settembre 2015, e da allora viene seguito dalla figlia Silvia. Nel 2011 la prima maglia azzurra, agli Europei di cross, mentre nel 2014 ha conquistato il titolo italiano di corsa campestre a staffetta con il suo club, l’Atletica Città di Padova. Studente al quinto anno di medicina, intende specializzarsi in ortopedia, anche se entrambi i genitori sono pediatri. Ha la passione dei viaggi e della montagna.

Curriculum: ECCC: 2011 (104jr, 8T/U20).

800 metri

Anno Data Tipo Cr. Cat. Piazz. Prestaz. Vento Città  
201725/05PESM3 se- 1 1:48.15Savona
201411/07PEPM5 se- 3 1:48.31Nembro
201431/05PEPM3 se- 2 1:48.36Caprino Veronese
201626/05PESM3 se- 1 1:48.39Orvieto
201625/08PESM4 se- 1 1:48.94Cles
201615/06PESM2 se- 3 1:49.12Conegliano Veneto
201707/07PESM4 se- 3 1:49.34Nembro
201523/05PESM3 se- 3 1:49.60Fidenza
201606/09PESM3 se- 1 1:49.62Rovereto
201725/06PESM1 se- 1 1:49.64Arzignano
201603/09PESM5 se- 4 1:49.82Brugnera
201530/05PESM2 se- 1 1:50.32Villafranca Di Verona
201424/05PEPM3 se- 3 1:50.89Milano
201308/06PEPM1 se- 7 1:51.72Caprino Veronese
201522/02IESM3 se- 3 1:51.78Padova
201320/07PEPM2 se- 1 1:51.99Gorizia
201707/05PESM1 se- 1 1:52.16Bussolengo
201315/06PEPM7 se- 2 1:52.19Rieti
201608/05PESM2 se- 1 1:52.30Vicenza
201514/02IESM1 se- 1 1:52.64Padova
201220/05PEPM3 se- 8 1:52.99Vicenza
201206/06PEPM2 se- 1 1:53.38Conegliano
201510/05PESM1 se- 1 1:53.61Marcon
201312/05PEPM3 se- 1 1:53.71Marcon
201001/05PEJM2 se- 1 1:53.77Voltabarozzo
201211/05PEPM2 se- 3 1:53.97Mogliano Veneto
200917/06PEAM2 se- 3 1:54.23Mogliano Veneto
201326/05PEPM8 se- 3 1:54.24Cassino
201306/07PEPM2 se- 1 1:54.24San Giovanni Lupatoto
201531/01IESM2 se- 1 1:54.61Padova
201205/05PEPM2 se- 1 1:55.48Scorze
201110/04PEJM1 se- 1 1:55.56Marcon
201215/04PEPM2 se- 1 1:55.63Vicenza
201014/07PEJM8 se- 1 1:55.72Conegliano
201021/07PEJM4 se- 1 1:55.94Gorizia
201625/04PESM1 se- 1 1:56.15Padova
200904/06PEAM3 se- 1 1:56.38Piombino Dese
200917/05PEAM2 se- 2 1:56.45Vicenza
200924/05PEAM1 se- 1 1:56.99Rosa
200904/10PEAM6 se- 2 1:57.36Grosseto
200903/05PEAM1 se- 1 1:57.43Mestre
200931/05PEAM5 se- 1 1:58.26Bressanone
200820/06PEAM1 se- 2 2:02.55Abano Terme
 

1000 metri

Anno Data Tipo Cr. Cat. Piazz. Prestaz. Vento Città  
201729/04PESM3 su- 1 2:21.13Trento
200931/01IEAM4 se- 1 2:42.48Padova
200706/10PECM5 su- 1 2:55.74Mestre
200729/09PECM3 se- 2 2:57.45Mogliano Veneto
200715/09PMCM4 se- 1 2:59.5Piombino Dese
200706/05PMCM1 se- 1 3:00.7Padova
200702/06PECM3 se- 2 3:02.14Verona
200722/06PECM10 se- 1 3:02.41Abano Terme
200715/04PMCM2 se- 1 3:02.7Padova
 

1500 metri

Anno Data Tipo Cr. Cat. Piazz. Prestaz. Vento Città  
201601/06PESM6 se- 1 3:39.85Montbeliard
201503/07PESM4 se- 1 3:39.88Ponzano Veneto
201507/07PESM7 su- 1 3:40.99Lignano Sabbiadoro
201506/06PESM4 se- 2 3:41.17Regensburg
201712/07PESM10 su- 1 3:41.53Lignano Sabbiadoro
201605/06PESM5 se- 1 3:42.54Regensburg
201418/05PEPM2 su- 1 3:42.59Gavardo
201524/06PESM1 se- 3 3:43.01Conegliano
201701/06PESM5 se- 2 3:43.40Ponzano Veneto
201714/06PESM8 se- 2 3:43.96Huelva
201526/07PESM3 se- 2 3:44.05Torino
201517/05PESM6 se- 2 3:44.09Gavardo
201626/06PESM2 se- 2 3:45.27Rieti
201408/06PEPM3 su- 1 3:45.30Torino
201607/07PESM9 ba- 2 3:45.65Amsterdam
201617/05PESM2 su- 1 3:46.17Castiglione Della Pescaia
201415/07PEPM8 se- 1 3:46.57Trento
201702/07PESM4 se- 2 3:46.63Trieste
201420/07PEPM2 se- 2 3:48.01Rovereto
201714/05PESM6 su- 1 3:48.44Castiglione Della Pescaia
201323/07PEPM3 se- 1 3:48.44Trento
201305/07PEPM1 se- 1 3:49.08Ponzano Veneto
201227/05PEPM1 se- 2 3:49.18Gavardo
201302/06PMPM1 se- 1 3:50.9Trieste
201311/07PEPM1 se- 1 3:51.01Ferrara
201410/05PEPM1 se- 1 3:51.29Vicenza
201316/06PEPM7 se- 2 3:51.96Rieti
201319/05PEPM3 se- 4 3:52.79Gavardo
201217/06PEPM4 su- 1 3:53.66Misano Adriatico
201219/05PEPM3 se- 3 3:53.74Vicenza
201501/02IESM2 se- 1 3:54.28Padova
201325/05PEPM1 se- 2 3:54.76Cassino
201206/05PEPM2 se- 1 3:54.87Marcon
201301/05PMPM1 se- 1 3:55.2Padova
201423/05PEPM1 su- 1 3:55.37Milano
201521/02IESM5 su- 1 3:56.02Padova
201117/04PEJM2 se- 1 3:56.95Treviso
201311/05PEPM3 se- 1 3:58.37Marcon
201222/04PEPM2 se- 1 3:59.37Treviso
201708/04PESM1 se- 1 4:00.36Marcon
201018/07PEJM5 se- 1 4:01.53Rovigo
201018/04PEJM4 se- 1 4:02.02Treviso
200920/06PEAM11 se- 2 4:02.93Villafranca Di Verona
201025/04PEJM1 su- 1 4:03.05Conegliano
200902/05PEAM3 su- 1 4:06.37Mestre
200802/07PEAM6 se- 1 4:10.82Milano
200923/05PEAM1 se- 1 4:11.86Rosa
200820/09PEAM5 su- 1 4:12.97Bovolone
200828/06PEAM2 se- 3 4:14.06Villafranca Di Verona
200803/10PEAM10 se- 1 4:16.62Rieti
200824/05PEAM5 su- 1 4:17.59Abano Terme
200807/09PEAM7 se- 2 4:17.95Treviso
200803/05PEAM4 su- 1 4:18.28Vittorio Veneto
200919/09PEAM3 se- 1 4:20.01Mogliano Veneto
200812/04PEAM5 su- 1 4:27.25Vicenza
 

2000 metri

Anno Data Tipo Cr. Cat. Piazz. Prestaz. Vento Città  
200730/09PECM8 su- 1 6:21.21Mogliano Veneto
200722/09PMCM2 se- 1 6:30.9Borgoricco
 

3000 metri

Anno Data Tipo Cr. Cat. Piazz. Prestaz. Vento Città  
201406/04PEPM1 se- 1 8:26.19Marcon
201517/01IESM6 se- 1 8:30.88Padova
201525/04PESM1 se- 1 8:32.37Padova
201412/01IEPM1 su- 1 8:47.41Padova
200924/01IEAM7 su- 1 9:16.43Padova
200825/05PEAM1 su- 1 9:18.14Abano Terme
200814/06PEAM10 su- 1 9:18.18Chiuro
200826/04PEAM2 se- 1 9:23.63Piombino Dese
200804/05PEAM1 su- 1 9:24.44Vittorio Veneto
200821/09PEAM2 su- 1 9:26.12Bovolone
 

5000 metri

Anno Data Tipo Cr. Cat. Piazz. Prestaz. Vento Città  
201118/09PEJM3 su- 1 15:29.53Bassano Del Grappa
 

Corsa strada Km 10

Anno Data Tipo Cr. Cat. Piazz. Prestaz. Vento Città  
201809/09SMSM14 su- 1 34:05San Giorgio D.pertiche
201611/09SMSM12 su- 1 34:38San Giorgio Pertiche
 

Attenzione: le schede-atleti sono composte automaticamente sulla base dei dati inseriti all'interno degli archivi nazionali aggiornati dal 2005 al 19-11-2019. Se un risultato non compare nelle graduatorie, quindi, è segno che lo stesso, con ogni probabilità, non è stato ancora inserito. Il processo di inserimento è di competenza dei Comitati Regionali sul cui territorio ha avuto luogo la manifestazione: eventuali segnalazioni per errori od omissioni, vanno dunque indirizzate agli stessi (potete utilizzare l'elenco con relativi contatti). Considerato però che solo le principali manifestazioni nazionali sono oggetto di inserimenti "in diretta" (sul posto di gara), mentre le altre, incluse le internazionali in programma all'estero, vengono inserite in tempi successivi, è opportuno attendere un ragionevole lasso di tempo prima di procedere ad una segnalazione.

Stickers


Non ventosi

GaraTipoPrestazioneVentoAnnoCittà
800 metriPista 1:48.152017Savona
800 metriIndoor 1:51.782015Padova
1000 metriPista 2:21.132017Trento
1000 metriIndoor 2:42.482009Padova
1500 metriPista 3:39.852016Montbeliard
1500 metriIndoor 3:54.282015Padova
2000 metriPista 6:21.212007Mogliano Veneto
3000 metriPista 8:26.192014Marcon
3000 metriIndoor 8:30.882015Padova
5000 metriPista 15:29.532011Bassano Del Grappa
Corsa strada Km 10Strada 34:052018San Giorgio D.pertiche

AnnoTipo mov.CategoriaSocietà
2019RinnovoSeniores MaschileC.U.S. PADOVA
2018RinnovoSeniores MaschileC.U.S. PADOVA
2017RinnovoSeniores MaschileATLETICA CITTA' DI PADOVA
2016RinnovoSeniores MaschileATLETICA CITTA' DI PADOVA
2015RinnovoSeniores MaschileATLETICA CITTA' DI PADOVA
2014RinnovoPromesse MaschileATLETICA CITTA' DI PADOVA
2013RinnovoPromesse MaschileATLETICA CITTA' DI PADOVA
2012RinnovoPromesse MaschileATLETICA CITTA' DI PADOVA
2011RinnovoJuniores MaschileATLETICA CITTA' DI PADOVA
2010TrasferimentoJuniores MaschileATLETICA CITTA' DI PADOVA
2009RinnovoAllieviATLETICA VIS ABANO
2008RinnovoAllieviATLETICA VIS ABANO
2007RinnovoCadettiATLETICA VIS ABANO
2006NuovoCadettiATLETICA VIS ABANO
AnnoInizioFineTipoDenominazione
201606-0710-07NazionaleCampionati Europei - Amsterdam (NED)
201605-0414-04RadunoMezzofondo - Modena
201501-1215-12RadunoMezzofondo - Siracusa
201510-1118-11RadunoMezzofondo - Tirrenia
201518-0124-01RadunoMezzofondo-Progetto Maratona - Grosseto